SCP
0 0 0 0 0 0 0 0 0 0 0 0 0 0 0 0 0 0 0 0 0 0 0 0 0 0 0 0 0 1 1 1 1 1 1 1 1 1 2 2 1 1 1 1
0 0 0 0 0 0 0 0 0 0 0 0 0 0 0 0 0 0 0 0 0 0 0 0 0 0 0 0 0 0 1 1 1 1 1 1 1 1 2 2 2 1 1 1
0 0 0 0 0 0 0 0 0 0 0 0 0 0 0 0 0 0 0 0 0 0 0 0 0 0 0 0 0 0 0 1 1 1 1 1 1 1 2 2 2 2 1 1
0 0 0 0 0 0 0 0 0 0 0 0 0 0 0 0 0 0 0 0 0 0 0 0 0 0 0 0 0 0 0 0 1 1 1 1 1 1 1 2 2 2 2 1
0 0 0 0 0 0 0 0 0 0 0 0 0 0 0 0 0 0 0 0 0 0 0 0 0 0 0 0 0 0 0 0 0 1 1 1 1 1 1 1 2 2 2 2
0 0 0 0 0 0 0 0 0 0 0 0 0 0 0 0 0 0 0 0 0 0 0 0 0 0 0 0 0 0 0 0 0 0 1 1 1 1 1 1 1 2 2 2
0 0 0 0 0 0 0 0 0 0 0 0 0 0 0 0 0 0 0 0 0 0 0 0 0 0 0 0 0 0 0 0 0 0 0 0 1 1 1 2 2 2 2 2
0 0 0 0 0 0 0 0 0 0 0 0 0 0 0 0 0 0 0 0 0 0 0 0 0 0 0 0 0 0 0 0 0 0 0 0 0 1 1 1 1 1 2 2
0 0 0 0 0 0 0 0 0 0 0 0 0 0 0 0 0 0 0 0 0 0 0 0 0 0 0 0 0 0 0 0 0 0 0 0 0 0 1 1 1 1 1 1
0 0 0 0 0 0 0 0 0 0 0 0 0 0 0 0 0 0 0 0 0 0 0 0 0 0 0 0 0 0 0 0 0 0 0 0 0 0 0 1 1 1 1 1
0 0 0 0 0 0 0 0 0 0 0 0 0 0 0 0 0 0 0 0 0 0 0 0 0 -0 0 0 0 0 0 0 0 0 0 0 1 1 0 0 0 0 1 1
0 0 0 0 0 0 0 0 0 0 0 0 0 0 0 0 0 0 0 0 0 0 0 0 0 0 0 0 0 0 0 0 0 0 0 0 1 1 0 0 0 0 0 1
0 0 0 0 0 0 0 0 0 0 0 0 0 0 0 0 0 0 0 0 0 0 0 0 0 0 0 0 0 0 0 0 0 0 0 0 0 0 0 0 0 0 0 0
0 0 0 0 0 0 0 0 0 0 0 0 0 0 0 0 0 0 0 0 0 0 0 0 0 0 0 0 0 0 0 0 0 0 0 0 0 0 0 0 0 0 0 0
0 0 0 0 0 0 0 0 0 0 0 0 0 0 0 0 0 0 0 0 0 0 0 0 0 0 0 0 0 0 0 0 0 0 0 0 0 0 0 0 0 0 0 0
0 0 0 0 0 0 0 0 0 0 0 0 0 0 0 0 0 0 0 0 0 0 0 0 0 0 0 0 0 0 0 0 0 0 0 0 0 0 0 0 0 0 0 0
0 0 0 0 0 0 0 0 0 0 0 0 0 0 0 0 0 0 0 0 0 0 0 0 0 0 0 0 0 0 0 0 0 0 0 0 0 0 0 0 0 0 0 0
0 0 0 0 0 0 0 0 0 0 0 0 0 0 0 0 0 0 0 0 0 0 0 0 0 0 0 0 0 0 0 0 0 0 0 0 0 0 0 0 0 0 0 0
0 0 0 0 0 0 0 0 0 0 0 0 0 0 0 0 0 0 0 0 0 0 0 0 0 0 0 0 0 0 0 0 0 0 0 0 0 0 0 0 0 0 0 0
0 0 0 0 0 0 0 0 0 0 0 0 0 0 0 0 0 0 0 0 0 0 0 0 0 0 0 0 0 0 0 0 0 0 0 0 0 0 0 0 0 0 0 0
0 0 0 0 0 0 0 0 0 0 0 0 0 0 0 0 0 0 0 0 0 0 0 0 0 0 0 0 0 0 0 0 0 0 0 0 0 0 0 0 0 0 0 0
0 0 0 0 0 0 0 0 0 0 0 0 0 0 0 0 0 0 0 0 0 0 0 0 0 0 0 0 0 0 0 0 0 0 0 0 0 0 0 0 0 0 0 0
0 0 0 0 0 0 0 0 0 0 0 0 0 0 0 0 0 0 0 0 0 0 0 0 0 0 0 0 0 0 0 0 0 0 0 0 0 0 0 0 0 0 0 0
0 0 0 0 0 0 0 0 0 0 0 0 0 0 0 0 0 0 0 0 0 0 0 0 0 0 0 0 0 0 0 0 0 0 0 0 0 0 0 0 0 0 0 0
0 0 0 0 0 0 0 0 0 0 0 0 0 0 0 0 0 0 0 0 0 0 0 0 0 0 0 0 0 0 0 0 0 0 0 0 0 0 0 0 0 0 0 0
0 0 0 0 0 0 0 0 0 0 0 0 0 0 0 0 0 0 0 0 0 0 0 0 0 0 0 0 0 0 0 0 0 0 0 0 0 0 0 0 0 0 0 0
Wind_Speed
2 2 3 5 6 6 5 6 8 6 4 6 9 10 7 6 4 4 4 3 4 5 6 6 6 5 5 5 5 6 6 7 6 6 6 7 9 9 9 9 10 12 12 12
4 5 6 5 5 5 6 7 7 5 4 6 9 10 7 5 4 4 4 4 5 6 6 6 6 6 5 5 6 5 6 6 6 6 6 6 7 8 9 8 10 12 12 12
5 1 3 4 4 6 7 7 7 7 7 5 7 8 6 3 2 3 3 4 4 5 6 6 6 6 5 5 5 5 5 5 6 6 5 4 5 5 6 9 9 11 12 12
4 3 2 3 3 5 7 6 7 7 6 4 4 8 5 4 3 3 3 4 5 5 5 6 6 6 6 6 5 5 5 4 4 5 5 7 6 7 8 7 7 8 10 11
2 2 3 4 5 5 4 4 6 7 7 7 6 8 5 3 6 4 4 4 5 5 6 6 6 6 6 6 5 4 4 4 4 4 5 6 7 7 6 6 6 6 7 9
3 3 4 4 3 4 3 3 3 3 4 8 8 9 7 4 6 4 4 4 5 6 6 7 7 7 6 6 5 5 5 5 5 4 3 4 6 6 6 6 5 5 5 6
2 2 1 3 3 2 1 1 2 2 4 6 4 7 7 1 2 4 4 5 6 6 6 7 7 7 7 7 7 6 6 5 5 4 3 3 4 5 5 5 5 5 4 5
2 2 1 1 3 4 4 4 3 4 5 4 4 8 4 1 3 3 3 5 6 6 6 6 7 7 7 8 7 7 6 6 6 4 4 3 4 3 3 4 4 4 4 5
2 3 1 2 2 3 3 4 3 4 4 5 5 5 6 2 4 4 4 5 6 6 6 7 7 8 8 8 8 7 7 6 6 5 5 4 4 4 3 3 4 3 3 3
2 4 3 3 2 2 4 2 2 4 4 7 7 9 6 3 4 4 5 5 6 6 6 7 7 7 8 8 8 7 7 7 6 6 5 4 4 4 4 3 4 4 4 4
1 3 3 1 3 4 3 3 3 3 4 5 8 7 2 4 5 6 6 6 7 8 7 7 7 8 8 8 7 7 7 7 6 6 5 5 4 4 4 3 4 4 4 4
2 3 4 4 3 3 3 3 3 5 6 6 8 8 2 5 6 7 7 7 8 8 8 8 8 8 8 8 8 7 7 7 7 7 6 5 5 5 5 5 5 4 4 4
1 2 3 2 3 2 3 4 5 5 5 7 9 9 2 6 7 8 8 8 8 9 9 9 8 8 8 8 8 7 7 7 7 7 6 6 6 5 5 6 6 5 5 5
2 3 5 7 5 3 5 7 6 6 6 9 13 14 12 11 11 10 10 10 9 10 10 10 9 9 8 8 8 8 7 7 7 7 6 6 6 6 6 6 6 5 5 5
1 4 5 8 9 9 11 12 11 12 12 12 14 15 15 13 12 11 10 10 11 11 11 10 10 10 10 9 9 8 8 7 7 7 7 7 7 6 6 6 6 6 5 5
1 3 3 6 7 9 13 14 15 15 14 16 17 19 14 13 11 12 11 11 12 12 12 11 11 11 10 10 9 8 8 7 7 7 7 7 6 6 6 6 6 6 6 5
2 2 3 5 5 6 11 12 12 11 12 12 16 15 10 11 11 12 12 12 12 12 12 12 12 11 10 10 10 9 8 7 7 7 7 7 6 6 6 6 6 6 6 6
4 3 2 4 3 10 6 2 7 11 13 13 13 12 11 11 12 12 11 11 12 13 13 12 11 11 10 10 10 9 8 7 7 7 7 6 6 6 6 6 6 6 6 6
7 5 3 3 6 12 10 6 6 8 12 10 12 13 12 11 13 12 9 9 11 13 13 12 11 11 10 10 9 9 8 7 7 7 7 6 6 6 6 7 7 6 6 6
3 5 4 5 7 11 7 2 3 5 11 6 7 10 10 10 11 10 9 10 11 12 10 10 11 10 10 9 8 8 8 8 8 7 7 7 6 7 7 7 7 6 6 6
3 4 7 9 10 12 8 3 3 6 7 4 6 8 9 10 11 12 12 12 11 12 11 11 10 10 9 8 7 8 8 8 8 7 6 6 6 6 7 7 6 6 5 5
8 7 8 7 9 13 5 6 7 8 6 7 8 8 9 12 13 13 13 12 12 12 11 10 10 10 8 6 6 8 9 7 6 6 6 6 6 6 5 6 6 5 5 5
10 9 7 11 11 7 5 9 7 7 9 9 9 10 10 12 13 14 13 12 12 11 11 9 9 10 8 5 5 8 8 6 6 5 6 6 6 5 5 5 5 5 4 4
8 7 8 10 14 13 12 12 11 10 11 11 10 10 10 12 13 13 12 11 11 10 9 8 8 9 8 6 5 6 6 5 5 6 6 5 5 5 4 4 4 4 4 4
9 7 8 13 14 12 11 12 13 11 9 10 10 9 11 12 13 12 11 10 10 9 8 7 8 8 9 7 6 5 5 4 5 6 6 5 5 5 4 4 4 5 5 5
9 11 11 13 12 10 10 7 7 9 10 10 10 11 10 10 11 11 10 9 8 8 7 7 8 8 8 7 7 6 4 4 5 5 5 4 4 4 4 4 4 5 6 7
Wind_Direction
161 176 207 212 220 245 249 248 257 268 293 279 264 274 284 300 297 289 294 302 301 300 307 318 320 316 312 308 296 275 252 239 230 223 218 218 217 215 215 216 219 217 216 214
173 221 241 237 230 236 241 250 264 281 299 274 269 272 276 286 292 288 292 304 315 320 329 336 335 333 324 313 303 292 277 261 241 234 229 227 226 221 218 216 217 218 218 215
206 242 245 221 223 234 239 246 261 280 305 269 274 261 251 254 278 308 314 313 327 330 331 336 344 343 337 328 312 304 291 279 262 248 241 240 235 234 222 219 218 217 217 214
238 258 259 223 234 241 246 256 264 270 270 261 258 266 248 248 265 282 305 317 317 325 328 330 336 338 337 331 328 320 315 305 294 271 246 233 232 234 236 229 223 219 214 215
221 239 248 242 247 245 272 296 270 261 253 257 244 256 258 243 255 262 288 311 320 328 329 328 330 334 340 346 345 340 337 337 323 300 271 249 243 243 247 241 230 220 216 217
265 254 252 257 268 240 290 303 275 251 242 244 239 243 262 232 253 276 299 317 325 331 333 334 340 351 352 355 353 350 350 347 344 333 310 279 264 259 257 255 245 227 220 219
292 232 241 244 245 206 285 277 252 229 228 244 235 235 250 273 295 299 315 329 333 338 342 345 349 350 353 354 353 352 351 347 345 342 335 317 290 272 263 261 257 247 231 225
281 243 237 265 234 241 229 220 235 261 257 272 243 238 244 26 326 318 329 334 344 350 352 351 351 350 352 351 350 351 350 346 346 345 341 336 324 293 283 281 278 267 257 247
274 267 288 277 284 233 229 222 242 271 285 269 248 260 275 279 310 324 337 345 350 349 348 347 348 349 348 349 347 346 344 345 345 344 344 345 343 328 306 300 290 282 282 279
281 276 280 286 260 237 246 230 212 221 249 260 263 257 255 290 295 308 320 329 334 337 340 341 343 343 345 346 345 346 343 341 339 341 342 344 341 333 322 316 306 294 288 290
277 268 286 270 230 248 212 199 224 233 247 258 267 263 283 274 287 300 310 320 325 332 334 335 337 338 342 344 345 343 342 341 339 336 333 335 334 334 333 318 314 311 304 298
262 260 264 262 283 282 241 229 225 240 244 249 266 271 287 297 304 309 315 318 322 326 329 331 332 333 335 338 340 339 337 335 333 330 328 326 327 331 331 327 319 316 313 305
251 229 263 236 198 194 234 235 242 251 256 247 254 266 305 304 308 311 314 315 317 320 322 322 324 327 327 329 330 329 327 326 326 326 324 322 323 324 321 321 321 318 316 312
281 236 238 253 281 274 262 256 246 235 245 253 252 269 283 296 302 308 309 309 310 311 311 311 313 316 316 316 317 318 318 320 320 320 317 314 316 316 314 314 315 315 312 309
258 246 249 265 276 272 266 263 256 246 245 252 263 267 275 282 287 293 298 301 303 303 303 303 305 309 311 310 310 311 311 314 314 312 309 306 311 312 312 311 312 312 308 304
243 244 262 272 278 279 271 261 253 251 251 253 262 268 275 283 285 288 291 296 297 299 301 302 302 303 304 305 305 305 305 306 305 301 299 304 307 307 307 307 309 307 304 301
222 214 252 272 309 298 263 244 235 239 241 247 255 267 285 286 284 286 288 288 293 298 300 299 298 297 298 299 297 293 292 293 291 289 292 297 299 300 303 304 302 300 300 301
210 201 242 280 297 252 254 255 247 251 258 254 262 274 281 283 287 289 289 292 297 300 298 297 295 293 293 292 291 291 290 287 284 284 287 291 294 297 301 300 296 297 298 295
214 199 210 235 261 273 279 256 229 250 272 261 259 271 283 293 295 287 291 297 294 295 295 294 292 291 290 289 293 291 287 284 281 283 285 289 291 292 293 291 292 296 297 294
197 200 210 219 248 258 268 244 245 264 271 261 263 277 289 295 288 293 310 306 300 299 297 296 294 290 287 290 295 287 282 280 278 282 287 289 286 284 283 285 289 293 292 290
177 201 219 233 248 264 267 235 196 238 272 303 280 281 285 283 284 298 302 299 298 298 299 298 295 290 289 294 291 281 278 276 282 288 289 287 283 282 280 283 286 288 289 290
202 203 211 213 235 255 215 177 217 254 294 293 290 286 284 286 290 292 295 297 299 300 301 300 295 291 292 291 284 278 278 286 290 288 284 283 283 281 279 279 283 284 282 282
221 215 212 213 234 266 214 226 250 271 277 281 283 285 285 286 288 293 296 298 300 301 301 299 294 293 292 289 277 274 282 289 289 286 281 281 282 279 275 271 274 280 278 272
236 225 236 252 259 262 262 260 265 266 269 276 279 281 282 283 287 291 293 296 298 299 300 300 296 290 289 290 281 276 286 291 283 275 276 277 275 277 277 273 268 266 267 268
237 212 234 254 267 276 264 258 263 268 268 272 276 278 279 282 283 285 288 290 293 296 300 299 293 289 291 298 295 291 291 290 280 277 275 275 272 274 279 278 275 273 271 268
221 219 231 251 252 251 267 266 266 268 273 276 279 280 276 274 279 284 284 286 289 292 296 296 295 293 295 299 296 296 293 280 274 276 278 279 278 279 279 283 289 282 277 283